Location: Ammerl�gen
(47.2167°N, 9.6000°E)
Time: 12:56:46
(UTC+00:00)

DMSP 5D-2 F13 DEB - Visible Passes

Search period start: 23 October 2021 00:00
Search period end: 02 November 2021 00:00
Orbit: 756 x 785 km, 98.7° (Epoch: 22 October)

Date Brightness Start Highest point End Pass type
(mag) Time Alt. Az. Time Alt. Az. Time Alt. Az.
23 Oct ? 18:22:48 34° NE 18:22:48 34° NE 18:26:33 10° N visible
23 Oct ? 20:03:07 24° NW 20:03:07 24° NW 20:05:36 10° NNW visible
24 Oct ? 17:47:13 19° NE 17:47:13 19° NE 17:50:33 10° NNE visible
24 Oct ? 19:27:33 37° NNW 19:27:33 37° NNW 19:30:38 10° NNW visible
25 Oct ? 17:11:39 10° ENE 17:12:12 10° NE 17:13:06 10° NE visible
25 Oct ? 18:51:58 40° N 18:51:58 40° N 18:55:17 10° N visible
25 Oct ? 20:32:17 14° NW 20:32:17 14° NW 20:33:21 10° NW visible
26 Oct ? 18:16:22 28° NE 18:16:22 28° NE 18:19:36 10° N visible
26 Oct ? 19:56:41 23° NW 19:56:41 23° NW 19:58:51 10° NNW visible
27 Oct ? 17:40:46 17° NE 17:40:46 17° NE 17:43:26 10° NNE visible
27 Oct ? 19:21:05 32° NNW 19:21:05 32° NNW 19:23:46 10° NNW visible
28 Oct ? 18:45:29 32° N 18:45:29 32° N 18:48:20 10° N visible
28 Oct ? 20:25:47 14° NW 20:25:47 14° NW 20:26:41 10° NW visible
29 Oct ? 18:09:51 23° NNE 18:09:51 23° NNE 18:12:32 10° N visible
29 Oct ? 19:50:10 21° NW 19:50:10 21° NW 19:52:00 10° NNW visible
30 Oct ? 17:34:13 15° NE 17:34:13 15° NE 17:36:11 10° NNE visible
30 Oct ? 19:14:32 27° NNW 19:14:32 27° NNW 19:16:48 10° NNW visible
31 Oct ? 18:38:53 26° N 18:38:53 26° N 18:41:16 10° N visible
31 Oct ? 20:19:12 13° NW 20:19:12 13° NW 20:19:54 10° NW visible
01 Nov ? 18:03:14 20° NNE 18:03:14 20° NNE 18:05:23 10° N visible
01 Nov ? 19:43:32 19° NNW 19:43:32 19° NNW 19:45:03 10° NNW visible
